• In Belarus
  • List of Countries
  • For 7 days
  • Water Temperature
  • Satellite Maps
  • Weather Map
  • Weather Widgets
  • user-avatar
    Login

    Hourly Weather Djelfa

    Today, 27 July, Thursday

    Time Temperature Precipitation Wind Pressure Humidity
    00:00 +26°C° 0 mm 3 mps 667 mmHg 35%
    01:00 +26°C° 0 mm 3 mps 667 mmHg 36%
    02:00 +25°C° 0 mm 2 mps 666 mmHg 37%
    03:00 +24°C° 0 mm 1 mps 666 mmHg 39%
    04:00 +24°C° 0 mm 1 mps 666 mmHg 38%
    05:00 +24°C° 0 mm 1 mps 667 mmHg 38%
    06:00 +25°C° 0 mm 1 mps 667 mmHg 36%
    07:00 +26°C° 0 mm 2 mps 667 mmHg 31%
    08:00 +27°C° 0 mm 2 mps 668 mmHg 27%
    09:00 +28°C° 0 mm 2 mps 668 mmHg 23%
    10:00 +30°C° 0 mm 3 mps 668 mmHg 21%
    11:00 +31°C° 0 mm 3 mps 669 mmHg 20%
    12:00 +33°C° 0 mm 3 mps 669 mmHg 19%
    13:00 +34°C° 0 mm 3 mps 669 mmHg 18%
    14:00 +34°C° 0 mm 3 mps 669 mmHg 17%
    15:00 +35°C° 0 mm 4 mps 669 mmHg 16%
    16:00 +35°C° 0 mm 3 mps 668 mmHg 16%
    17:00 +35°C° 0 mm 3 mps 668 mmHg 16%
    18:00 +34°C° 0 mm 3 mps 668 mmHg 16%
    19:00 +34°C° 0 mm 3 mps 668 mmHg 18%
    20:00 +32°C° 0 mm 2 mps 668 mmHg 19%
    21:00 +31°C° 0 mm 2 mps 668 mmHg 20%
    22:00 +30°C° 0 mm 2 mps 668 mmHg 22%
    23:00 +29°C° 0 mm 2 mps 668 mmHg 24%

    Tomorrow, 28 July, Friday

    Time Temperature Precipitation Wind Pressure Humidity
    00:00 +29°C° 0 mm 3 mps 668 mmHg 26%
    01:00 +28°C° 0 mm 3 mps 668 mmHg 29%
    02:00 +27°C° 0 mm 3 mps 668 mmHg 32%
    03:00 +27°C° 0 mm 3 mps 667 mmHg 35%
    04:00 +27°C° 0 mm 2 mps 668 mmHg 36%
    05:00 +27°C° 0 mm 2 mps 668 mmHg 36%
    06:00 +27°C° 0 mm 2 mps 668 mmHg 37%
    07:00 +29°C° 0 mm 2 mps 669 mmHg 32%
    08:00 +31°C° 0 mm 3 mps 669 mmHg 27%
    09:00 +33°C° 0 mm 3 mps 670 mmHg 22%
    10:00 +35°C° 0 mm 3 mps 670 mmHg 20%
    11:00 +36°C° 0 mm 3 mps 670 mmHg 18%
    12:00 +37°C° 0 mm 3 mps 670 mmHg 16%
    13:00 +38°C° 0 mm 3 mps 670 mmHg 15%
    14:00 +39°C° 0 mm 3 mps 669 mmHg 14%
    15:00 +39°C° 0 mm 3 mps 669 mmHg 13%
    16:00 +39°C° 0 mm 3 mps 669 mmHg 13%
    17:00 +40°C° 0 mm 4 mps 669 mmHg 12%
    18:00 +40°C° 0 mm 5 mps 669 mmHg 12%
    19:00 +39°C° 0 mm 5 mps 669 mmHg 14%
    20:00 +37°C° 0 mm 5 mps 669 mmHg 15%
    21:00 +36°C° 0 mm 6 mps 669 mmHg 17%
    22:00 +35°C° 0 mm 6 mps 669 mmHg 19%
    23:00 +34°C° 0 mm 7 mps 669 mmHg 20%

    Day after tomorrow, 29 July, Saturday

    Time Temperature Precipitation Wind Pressure Humidity
    00:00 +33°C° 0 mm 7 mps 669 mmHg 22%
    01:00 +32°C° 0 mm 7 mps 668 mmHg 23%
    02:00 +32°C° 0 mm 6 mps 668 mmHg 24%
    03:00 +30°C° 0 mm 6 mps 668 mmHg 25%
    04:00 +30°C° 0 mm 6 mps 668 mmHg 25%
    05:00 +30°C° 0 mm 5 mps 668 mmHg 25%
    06:00 +29°C° 0 mm 5 mps 669 mmHg 25%
    07:00 +32°C° 0 mm 5 mps 669 mmHg 23%
    08:00 +34°C° 0 mm 6 mps 670 mmHg 20%
    09:00 +35°C° 0 mm 7 mps 670 mmHg 18%
    10:00 +38°C° 0 mm 7 mps 670 mmHg 16%
    11:00 +39°C° 0 mm 7 mps 670 mmHg 15%
    12:00 +40°C° 0 mm 7 mps 670 mmHg 13%
    13:00 +41°C° 0 mm 6 mps 670 mmHg 13%
    14:00 +41°C° 0 mm 6 mps 670 mmHg 12%
    15:00 +42°C° 0 mm 6 mps 669 mmHg 11%
    16:00 +41°C° 0 mm 5 mps 669 mmHg 11%
    17:00 +41°C° 0 mm 5 mps 669 mmHg 12%
    18:00 +41°C° 0 mm 5 mps 669 mmHg 12%
    19:00 +38°C° 0 mm 4 mps 669 mmHg 14%
    20:00 +37°C° 0 mm 3 mps 669 mmHg 16%
    21:00 +35°C° 0 mm 3 mps 669 mmHg 18%
    22:00 +35°C° 0 mm 3 mps 669 mmHg 20%
    23:00 +34°C° 0 mm 3 mps 669 mmHg 22%

    30 July, Sunday

    Time Temperature Precipitation Wind Pressure Humidity
    00:00 +33°C° 0 mm 3 mps 668 mmHg 25%
    01:00 +31°C° 0 mm 3 mps 668 mmHg 26%
    02:00 +30°C° 0 mm 2 mps 668 mmHg 27%
    03:00 +29°C° 0 mm 2 mps 667 mmHg 29%
    04:00 +29°C° 0 mm 2 mps 668 mmHg 29%
    05:00 +29°C° 0 mm 2 mps 668 mmHg 28%
    06:00 +29°C° 0 mm 2 mps 668 mmHg 28%
    07:00 +31°C° 0 mm 3 mps 669 mmHg 25%
    08:00 +34°C° 0 mm 3 mps 669 mmHg 22%
    09:00 +35°C° 0 mm 3 mps 670 mmHg 19%
    10:00 +37°C° 0 mm 4 mps 670 mmHg 17%
    11:00 +38°C° 0 mm 4 mps 670 mmHg 15%
    12:00 +40°C° 0 mm 4 mps 670 mmHg 13%
    13:00 +41°C° 0 mm 4 mps 669 mmHg 12%
    14:00 +41°C° 0 mm 5 mps 669 mmHg 11%
    15:00 +42°C° 0 mm 5 mps 669 mmHg 10%
    16:00 +41°C° 0 mm 5 mps 668 mmHg 11%
    17:00 +41°C° 0 mm 4 mps 668 mmHg 11%
    18:00 +40°C° 0 mm 4 mps 668 mmHg 11%
    19:00 +38°C° 0 mm 4 mps 668 mmHg 12%
    20:00 +39°C° 0 mm 5 mps 668 mmHg 13%
    21:00 +38°C° 0 mm 6 mps 669 mmHg 14%
    22:00 +36°C° 0 mm 5 mps 668 mmHg 15%
    23:00 +35°C° 0 mm 5 mps 668 mmHg 17%

    31 July, Monday

    Time Temperature Precipitation Wind Pressure Humidity
    00:00 +34°C° 0 mm 5 mps 668 mmHg 18%
    01:00 +33°C° 0 mm 4 mps 667 mmHg 19%
    02:00 +31°C° 0 mm 3 mps 667 mmHg 20%
    03:00 +31°C° 0 mm 2 mps 666 mmHg 21%
    04:00 +31°C° 0 mm 2 mps 667 mmHg 21%
    05:00 +31°C° 0 mm 2 mps 667 mmHg 20%
    06:00 +31°C° 0 mm 2 mps 667 mmHg 20%
    07:00 +34°C° 0 mm 3 mps 668 mmHg 18%
    08:00 +36°C° 0 mm 4 mps 668 mmHg 16%
    09:00 +39°C° 0 mm 5 mps 669 mmHg 13%
    10:00 +40°C° 0 mm 5 mps 669 mmHg 12%
    11:00 +41°C° 0 mm 5 mps 669 mmHg 11%
    12:00 +42°C° 0 mm 5 mps 669 mmHg 10%
    13:00 +42°C° 0 mm 4 mps 668 mmHg 10%
    14:00 +42°C° 0 mm 4 mps 668 mmHg 10%
    15:00 +42°C° 0 mm 4 mps 668 mmHg 10%
    16:00 +40°C° 0 mm 5 mps 667 mmHg 12%
    17:00 +39°C° 0 mm 6 mps 667 mmHg 14%
    18:00 +38°C° 0 mm 7 mps 667 mmHg 15%
    19:00 +36°C° 0.2 mm 7 mps 667 mmHg 18%
    20:00 +35°C° 0.2 mm 7 mps 668 mmHg 20%
    21:00 +34°C° 0.2 mm 7 mps 668 mmHg 22%
    22:00 +34°C° 0 mm 8 mps 668 mmHg 21%
    23:00 +34°C° 0 mm 8 mps 668 mmHg 20%

    1 August, Tuesday

    Time Temperature Precipitation Wind Pressure Humidity
    00:00 +34°C° 0 mm 9 mps 668 mmHg 19%
    01:00 +34°C° 0 mm 8 mps 668 mmHg 20%
    02:00 +33°C° 0 mm 7 mps 668 mmHg 21%
    03:00 +33°C° 0 mm 6 mps 668 mmHg 22%
    04:00 +32°C° 0 mm 5 mps 668 mmHg 23%
    05:00 +32°C° 0 mm 5 mps 668 mmHg 23%
    06:00 +32°C° 0 mm 4 mps 668 mmHg 24%
    07:00 +34°C° 0 mm 4 mps 669 mmHg 21%
    08:00 +35°C° 0 mm 4 mps 669 mmHg 19%
    09:00 +37°C° 0 mm 5 mps 670 mmHg 16%
    10:00 +38°C° 0 mm 4 mps 670 mmHg 15%
    11:00 +40°C° 0 mm 4 mps 670 mmHg 14%
    12:00 +40°C° 0 mm 3 mps 670 mmHg 12%
    13:00 +40°C° 0 mm 3 mps 670 mmHg 12%
    14:00 +40°C° 0 mm 3 mps 669 mmHg 12%
    15:00 +40°C° 0 mm 3 mps 669 mmHg 11%
    16:00 +41°C° 0 mm 4 mps 669 mmHg 12%
    17:00 +40°C° 0 mm 4 mps 669 mmHg 12%
    18:00 +40°C° 0 mm 5 mps 669 mmHg 13%
    19:00 +39°C° 0.1 mm 5 mps 670 mmHg 15%
    20:00 +36°C° 0.1 mm 5 mps 670 mmHg 18%
    21:00 +35°C° 0.1 mm 5 mps 670 mmHg 20%
    22:00 +34°C° 0.2 mm 5 mps 670 mmHg 24%
    23:00 +33°C° 0.2 mm 6 mps 670 mmHg 27%
    Show more